When you browse on this site, cookies collect data to enhance your experience and personalize the content and advertising you see.
Visit our Privacy Policy to learn more. By continuing to use the site, you agree to this use of cookies and data.
  • In Austria
  • List of Countries
  • For 7 days
  • Water Temperature
  • Weather Map
  • News
  • Weather Widgets
  • user-avatar
    Login

    Hourly Weather Podbolote

    Today, 17 September, Tuesday

    Time Temperature Precipitation Wind Pressure Humidity
    00:00 +10°C° 0 mm 4 mps 744 mmHg 76%
    01:00 +8°C° 0 mm 4 mps 744 mmHg 79%
    02:00 +7°C° 0 mm 4 mps 744 mmHg 81%
    03:00 +7°C° 0 mm 4 mps 744 mmHg 81%
    04:00 +7°C° 0 mm 4 mps 744 mmHg 81%
    05:00 +6°C° 0 mm 4 mps 744 mmHg 82%
    06:00 +7°C° 0 mm 5 mps 744 mmHg 80%
    07:00 +8°C° 0 mm 5 mps 744 mmHg 79%
    08:00 +9°C° 0 mm 6 mps 744 mmHg 78%
    09:00 +10°C° 0 mm 6 mps 744 mmHg 71%
    10:00 +11°C° 0 mm 6 mps 743 mmHg 65%
    11:00 +14°C° 0 mm 6 mps 743 mmHg 59%
    12:00 +14°C° 0.1 mm 6 mps 743 mmHg 57%
    13:00 +15°C° 0.1 mm 6 mps 742 mmHg 56%
    14:00 +15°C° 0 mm 6 mps 742 mmHg 55%
    15:00 +15°C° 0.2 mm 6 mps 741 mmHg 58%
    16:00 +14°C° 0.2 mm 5 mps 741 mmHg 61%
    17:00 +14°C° 0.2 mm 5 mps 740 mmHg 64%
    18:00 +13°C° 0.1 mm 5 mps 740 mmHg 65%
    19:00 +12°C° 0.1 mm 5 mps 740 mmHg 67%
    20:00 +10°C° 0.1 mm 5 mps 740 mmHg 68%
    21:00 +9°C° 0.2 mm 5 mps 739 mmHg 74%
    22:00 +9°C° 0.2 mm 5 mps 739 mmHg 79%
    23:00 +8°C° 0.2 mm 5 mps 738 mmHg 85%

    Tomorrow, 18 September, Wednesday

    Time Temperature Precipitation Wind Pressure Humidity
    00:00 +7°C° 0.8 mm 5 mps 738 mmHg 87%
    01:00 +7°C° 0.8 mm 6 mps 738 mmHg 88%
    02:00 +5°C° 0.8 mm 6 mps 738 mmHg 90%
    03:00 +5°C° 0.7 mm 6 mps 738 mmHg 89%
    04:00 +5°C° 0.7 mm 6 mps 737 mmHg 88%
    05:00 +4°C° 0.7 mm 6 mps 737 mmHg 87%
    06:00 +5°C° 0 mm 7 mps 738 mmHg 86%
    07:00 +5°C° 0 mm 7 mps 738 mmHg 85%
    08:00 +5°C° 0 mm 8 mps 738 mmHg 83%
    09:00 +5°C° 0 mm 7 mps 739 mmHg 81%
    10:00 +6°C° 0 mm 7 mps 739 mmHg 79%
    11:00 +8°C° 0 mm 7 mps 740 mmHg 76%
    12:00 +9°C° 0 mm 7 mps 740 mmHg 70%
    13:00 +10°C° 0 mm 7 mps 741 mmHg 64%
    14:00 +12°C° 0 mm 8 mps 741 mmHg 59%
    15:00 +11°C° 0.1 mm 7 mps 742 mmHg 60%
    16:00 +11°C° 0.1 mm 6 mps 743 mmHg 62%
    17:00 +11°C° 0.1 mm 6 mps 744 mmHg 64%
    18:00 +10°C° 0.2 mm 6 mps 744 mmHg 71%
    19:00 +9°C° 0.2 mm 6 mps 745 mmHg 78%
    20:00 +8°C° 0.2 mm 6 mps 745 mmHg 84%
    21:00 +8°C° 0 mm 6 mps 746 mmHg 85%
    22:00 +7°C° 0 mm 6 mps 746 mmHg 87%
    23:00 +7°C° 0 mm 5 mps 747 mmHg 88%

    Day after tomorrow, 19 September, Thursday

    Time Temperature Precipitation Wind Pressure Humidity
    00:00 +6°C° 0 mm 5 mps 747 mmHg 89%
    01:00 +6°C° 0 mm 5 mps 747 mmHg 91%
    02:00 +5°C° 0 mm 5 mps 747 mmHg 92%
    03:00 +5°C° 0 mm 4 mps 748 mmHg 93%
    04:00 +4°C° 0 mm 4 mps 748 mmHg 94%
    05:00 +4°C° 0 mm 4 mps 748 mmHg 95%
    06:00 +5°C° 0 mm 4 mps 748 mmHg 91%
    07:00 +6°C° 0 mm 5 mps 748 mmHg 88%
    08:00 +6°C° 0 mm 5 mps 749 mmHg 84%
    09:00 +7°C° 0.1 mm 5 mps 749 mmHg 80%
    10:00 +9°C° 0.1 mm 5 mps 749 mmHg 76%
    11:00 +10°C° 0.1 mm 5 mps 749 mmHg 71%
    12:00 +10°C° 0.2 mm 5 mps 749 mmHg 72%
    13:00 +10°C° 0.2 mm 5 mps 749 mmHg 72%
    14:00 +10°C° 0.2 mm 5 mps 749 mmHg 72%
    15:00 +10°C° 0.1 mm 5 mps 749 mmHg 72%
    16:00 +12°C° 0.1 mm 4 mps 749 mmHg 71%
    17:00 +12°C° 0.1 mm 4 mps 749 mmHg 70%
    18:00 +10°C° 0.2 mm 4 mps 749 mmHg 75%
    19:00 +9°C° 0.2 mm 3 mps 749 mmHg 80%
    20:00 +8°C° 0.2 mm 3 mps 749 mmHg 85%
    21:00 +8°C° 0 mm 3 mps 749 mmHg 86%
    22:00 +7°C° 0 mm 3 mps 750 mmHg 87%
    23:00 +7°C° 0 mm 3 mps 750 mmHg 88%

    20 September, Friday

    Time Temperature Precipitation Wind Pressure Humidity
    00:00 +7°C° 0 mm 3 mps 750 mmHg 89%
    01:00 +5°C° 0 mm 4 mps 750 mmHg 90%
    02:00 +5°C° 0 mm 4 mps 750 mmHg 92%
    03:00 +4°C° 0 mm 4 mps 750 mmHg 93%
    04:00 +4°C° 0 mm 4 mps 750 mmHg 94%
    05:00 +3°C° 0 mm 4 mps 750 mmHg 96%
    06:00 +4°C° 0 mm 4 mps 750 mmHg 91%
    07:00 +3°C° 0 mm 5 mps 751 mmHg 86%
    08:00 +5°C° 0 mm 5 mps 751 mmHg 81%
    09:00 +5°C° 0 mm 6 mps 751 mmHg 73%
    10:00 +7°C° 0 mm 6 mps 751 mmHg 64%
    11:00 +9°C° 0 mm 6 mps 751 mmHg 56%
    12:00 +9°C° 0.2 mm 7 mps 751 mmHg 55%
    13:00 +10°C° 0.2 mm 7 mps 751 mmHg 54%
    14:00 +10°C° 0.2 mm 7 mps 751 mmHg 53%
    15:00 +10°C° 0.1 mm 6 mps 751 mmHg 55%
    16:00 +9°C° 0.1 mm 5 mps 751 mmHg 56%
    17:00 +10°C° 0.1 mm 4 mps 751 mmHg 58%
    18:00 +8°C° 0 mm 4 mps 752 mmHg 64%
    19:00 +6°C° 0 mm 4 mps 752 mmHg 70%
    20:00 +5°C° 0 mm 3 mps 753 mmHg 77%
    21:00 +4°C° 0 mm 3 mps 753 mmHg 81%
    22:00 +4°C° 0 mm 3 mps 754 mmHg 86%
    23:00 +3°C° 0 mm 3 mps 754 mmHg 91%

    21 September, Saturday

    Time Temperature Precipitation Wind Pressure Humidity
    00:00 +3°C° 0 mm 3 mps 754 mmHg 92%
    01:00 +2°C° 0 mm 3 mps 755 mmHg 93%
    02:00 +2°C° 0 mm 3 mps 755 mmHg 94%
    03:00 +2°C° 0 mm 3 mps 755 mmHg 94%
    04:00 +1°C° 0 mm 3 mps 755 mmHg 95%
    05:00 +1°C° 0 mm 3 mps 756 mmHg 95%
    06:00 +2°C° 0 mm 3 mps 756 mmHg 89%
    07:00 +3°C° 0 mm 3 mps 756 mmHg 83%
    08:00 +3°C° 0 mm 3 mps 756 mmHg 78%
    09:00 +5°C° 0 mm 3 mps 756 mmHg 68%
    10:00 +8°C° 0 mm 3 mps 757 mmHg 59%
    11:00 +10°C° 0 mm 3 mps 757 mmHg 49%
    12:00 +11°C° 0 mm 3 mps 757 mmHg 48%
    13:00 +12°C° 0 mm 3 mps 756 mmHg 47%
    14:00 +12°C° 0 mm 4 mps 756 mmHg 46%
    15:00 +12°C° 0 mm 3 mps 756 mmHg 49%
    16:00 +12°C° 0 mm 3 mps 756 mmHg 53%
    17:00 +12°C° 0 mm 3 mps 755 mmHg 57%
    18:00 +10°C° 0 mm 3 mps 755 mmHg 60%
    19:00 +9°C° 0 mm 3 mps 755 mmHg 63%
    20:00 +8°C° 0 mm 3 mps 755 mmHg 66%
    21:00 +8°C° 0 mm 3 mps 755 mmHg 66%
    22:00 +8°C° 0 mm 3 mps 755 mmHg 67%
    23:00 +6°C° 0 mm 4 mps 755 mmHg 67%

    22 September, Sunday

    Time Temperature Precipitation Wind Pressure Humidity
    00:00 +6°C° 0 mm 4 mps 755 mmHg 67%
    01:00 +6°C° 0 mm 4 mps 755 mmHg 67%
    02:00 +6°C° 0 mm 4 mps 754 mmHg 66%
    03:00 +6°C° 0 mm 4 mps 754 mmHg 70%
    04:00 +6°C° 0 mm 4 mps 754 mmHg 73%
    05:00 +5°C° 0 mm 4 mps 754 mmHg 77%
    06:00 +6°C° 0 mm 4 mps 754 mmHg 74%
    07:00 +7°C° 0 mm 4 mps 754 mmHg 72%
    08:00 +8°C° 0 mm 4 mps 754 mmHg 70%
    09:00 +10°C° 0 mm 5 mps 753 mmHg 64%
    10:00 +13°C° 0 mm 5 mps 753 mmHg 59%
    11:00 +15°C° 0 mm 5 mps 753 mmHg 53%
    12:00 +16°C° 0 mm 5 mps 753 mmHg 51%
    13:00 +17°C° 0 mm 5 mps 753 mmHg 49%
    14:00 +19°C° 0 mm 5 mps 752 mmHg 47%
    15:00 +18°C° 0 mm 4 mps 752 mmHg 51%
    16:00 +18°C° 0 mm 3 mps 751 mmHg 55%
    17:00 +17°C° 0 mm 2 mps 751 mmHg 59%
    18:00 +16°C° 0 mm 2 mps 750 mmHg 62%
    19:00 +14°C° 0 mm 2 mps 750 mmHg 65%
    20:00 +12°C° 0 mm 2 mps 750 mmHg 68%
    21:00 +12°C° 0 mm 2 mps 750 mmHg 70%
    22:00 +10°C° 0 mm 2 mps 749 mmHg 71%
    23:00 +10°C° 0 mm 2 mps 749 mmHg 73%
    Show more